Weather History for Okeechobee, FL

Change the Weather History Date:

Thursday, November 22, 2012

  Actual Average Record
Temperature  
Mean Temperature 58 °F -  
Max Temperature 69 °F 77 °F 86 °F (1986)
Min Temperature 46 °F 57 °F 38 °F (1968)
Degree Days  
Heating Degree Days 8    
Growing Degree Days 8 (Base 50)    
Moisture  
Dew Point 45 °F    
Average Humidity 68    
Maximum Humidity 100    
Minimum Humidity 38    
Precipitation  
Precipitation 0.00 in - - ()
Sea Level Pressure  
Sea Level Pressure 30.10 in    
Wind  
Wind Speed 8 mph (NNW)    
Max Wind Speed 18 mph    
Max Gust Speed 24 mph    
Visibility 10 miles    
Events      
Averages and records for this station are not official NWS values.
T = Trace of Precipitation, MM = Missing Value Source: NWS Daily Summary

Daily Weather History Graph

Daily Weather History Graph

Search for Another Location

Airport:

Trip Planner

Search our weather history database for the weather conditions in past years. The results will help you decide how hot, cold, wet, or windy it might be!

Date:

Astronomy

Nov. 22, 2012 Rise Set
Actual Time 6:49 AM EST 5:29 PM EST
Civil Twilight 6:24 AM EST 5:54 PM EST
Nautical Twilight 5:56 AM EST 6:23 PM EST
Astronomical Twilight 5:28 AM EST 6:51 PM EST
Moon 1:50 PM EST 1:34 AM EST
Length of Visible Light 11h 30m
Length of Day
10h 40m
Waxing Gibbous, 71% of the Moon is Illuminated
Nov 22
Waxing Gibbous
Nov 28
Full
Dec 6
Last Quarter
Dec 13
New
Dec 20
First Quarter

Hourly Weather History & Observations

Time (EST) Temp. Windchill Dew Point Humidity Pressure Visibility Wind Dir Wind Speed Gust Speed Precip Events Conditions
12:15 AM 48.2 °F - 44.6 °F 87% 30.08 in 10.0 mi NW 3.5 mph - N/A   Clear
12:35 AM 46.4 °F 45.2 °F 44.6 °F 93% 30.07 in 10.0 mi NW 3.5 mph - N/A   Clear
12:55 AM 48.2 °F - 46.4 °F 93% 30.07 in 10.0 mi NW 4.6 mph - N/A   Clear
1:15 AM 46.4 °F 44.3 °F 44.6 °F 93% 30.08 in 10.0 mi WNW 4.6 mph - N/A   Clear
1:35 AM 46.4 °F 43.5 °F 44.6 °F 93% 30.07 in 10.0 mi WNW 5.8 mph - N/A   Clear
1:55 AM 46.4 °F 44.3 °F 46.4 °F 100% 30.07 in 10.0 mi NW 4.6 mph - N/A   Clear
2:15 AM 48.2 °F - 46.4 °F 93% 30.06 in 10.0 mi NW 4.6 mph - N/A   Clear
2:35 AM 48.2 °F - 46.4 °F 93% 30.06 in 10.0 mi NW 5.8 mph - N/A   Clear
2:55 AM 48.2 °F - 46.4 °F 93% 30.06 in 10.0 mi NW 5.8 mph - N/A   Clear
3:15 AM 50.0 °F - 46.4 °F 87% 30.05 in 10.0 mi NW 5.8 mph - N/A   Clear
3:35 AM 50.0 °F - 46.4 °F 87% 30.05 in 10.0 mi NW 6.9 mph - N/A   Clear
3:55 AM 50.0 °F - 46.4 °F 87% 30.05 in 10.0 mi NW 6.9 mph - N/A   Clear
4:15 AM 50.0 °F - 46.4 °F 87% 30.05 in 10.0 mi NW 6.9 mph - N/A   Clear
4:35 AM 50.0 °F - 46.4 °F 87% 30.05 in 10.0 mi NW 6.9 mph - N/A   Clear
4:55 AM 50.0 °F - 46.4 °F 87% 30.05 in 10.0 mi NW 6.9 mph - N/A   Clear
5:15 AM 48.2 °F - 46.4 °F 93% 30.05 in 10.0 mi NW 6.9 mph - N/A   Clear
5:35 AM 48.2 °F - 46.4 °F 93% 30.06 in 10.0 mi NW 8.1 mph - N/A   Clear
5:55 AM 48.2 °F - 46.4 °F 93% 30.06 in 10.0 mi NW 6.9 mph - N/A   Clear
6:15 AM 48.2 °F - 46.4 °F 93% 30.07 in 10.0 mi NW 5.8 mph - N/A   Clear
6:35 AM 48.2 °F - 46.4 °F 93% 30.07 in 10.0 mi NW 5.8 mph - N/A   Clear
6:55 AM 48.2 °F - 46.4 °F 93% 30.08 in 10.0 mi NW 6.9 mph - N/A   Clear
7:15 AM 48.2 °F - 46.4 °F 93% 30.08 in 10.0 mi NW 6.9 mph - N/A   Clear
7:35 AM 50.0 °F - 46.4 °F 87% 30.09 in 10.0 mi NW 8.1 mph - N/A   Clear
8:15 AM 51.8 °F - 46.4 °F 82% 30.10 in 10.0 mi NNW 8.1 mph - N/A   Clear
8:35 AM 53.6 °F - 48.2 °F 82% 30.10 in 10.0 mi NNW 9.2 mph - N/A   Clear
8:55 AM 55.4 °F - 50.0 °F 82% 30.11 in 10.0 mi NNW 11.5 mph - N/A   Clear
9:15 AM 59.0 °F - 50.0 °F 72% 30.11 in 10.0 mi NNW 12.7 mph 18.4 mph N/A   Clear
9:35 AM 59.0 °F - 50.0 °F 72% 30.12 in 10.0 mi NNW 11.5 mph 17.3 mph N/A   Clear
9:55 AM 62.6 °F - 50.0 °F 63% 30.12 in 10.0 mi NNW 10.4 mph 16.1 mph N/A   Clear
10:15 AM 62.6 °F - 50.0 °F 63% 30.13 in 10.0 mi NNW 13.8 mph 20.7 mph N/A   Clear
10:35 AM 64.4 °F - 50.0 °F 59% 30.13 in 10.0 mi North 15.0 mph 19.6 mph N/A   Clear
10:55 AM 64.4 °F - 50.0 °F 59% 30.12 in 10.0 mi NNW 15.0 mph - N/A   Clear
11:15 AM 66.2 °F - 50.0 °F 56% 30.12 in 10.0 mi NNW 13.8 mph 19.6 mph N/A   Clear
11:35 AM 68.0 °F - 50.0 °F 52% 30.11 in 10.0 mi North 13.8 mph 18.4 mph N/A   Clear
11:55 AM 68.0 °F - 50.0 °F 52% 30.10 in 10.0 mi North 15.0 mph - N/A   Clear
12:15 PM 68.0 °F - 50.0 °F 52% 30.10 in 10.0 mi NW 15.0 mph 20.7 mph N/A   Clear
12:35 PM 69.8 °F - 50.0 °F 49% 30.09 in 10.0 mi NNW 13.8 mph 19.6 mph N/A   Clear
12:55 PM 69.8 °F - 48.2 °F 46% 30.08 in 10.0 mi NNW 15.0 mph 20.7 mph N/A   Clear
1:15 PM 69.8 °F - 46.4 °F 43% 30.08 in 10.0 mi NNW 15.0 mph 21.9 mph N/A   Clear
1:35 PM 69.8 °F - 44.6 °F 40% 30.07 in 10.0 mi North 15.0 mph 24.2 mph N/A   Clear
1:55 PM 69.8 °F - 46.4 °F 43% 30.07 in 10.0 mi NNW 13.8 mph 20.7 mph N/A   Clear
2:15 PM 69.8 °F - 44.6 °F 40% 30.06 in 10.0 mi NNW 18.4 mph - N/A   Clear
2:35 PM 69.8 °F - 44.6 °F 40% 30.06 in 10.0 mi North 12.7 mph 21.9 mph N/A   Clear
2:55 PM 69.8 °F - 44.6 °F 40% 30.06 in 10.0 mi North 17.3 mph - N/A   Clear
3:15 PM 69.8 °F - 44.6 °F 40% 30.06 in 10.0 mi North 13.8 mph 18.4 mph N/A   Clear
3:35 PM 69.8 °F - 42.8 °F 38% 30.06 in 10.0 mi North 12.7 mph - N/A   Clear
3:55 PM 68.0 °F - 42.8 °F 40% 30.07 in 10.0 mi NNE 15.0 mph - N/A   Clear
4:15 PM 68.0 °F - 44.6 °F 43% 30.08 in 10.0 mi NNE 16.1 mph - N/A   Clear
4:35 PM 66.2 °F - 42.8 °F 43% 30.09 in 10.0 mi North 15.0 mph 20.7 mph N/A   Clear
4:55 PM 64.4 °F - 42.8 °F 45% 30.09 in 10.0 mi North 12.7 mph 18.4 mph N/A   Clear
5:15 PM 62.6 °F - 44.6 °F 52% 30.10 in 10.0 mi North 11.5 mph 18.4 mph N/A   Clear
5:35 PM 60.8 °F - 42.8 °F 52% 30.10 in 10.0 mi North 13.8 mph - N/A   Clear
5:55 PM 59.0 °F - 42.8 °F 55% 30.11 in 10.0 mi North 10.4 mph - N/A   Clear
6:15 PM 59.0 °F - 42.8 °F 55% 30.12 in 10.0 mi North 10.4 mph - N/A   Clear
6:35 PM 57.2 °F - 42.8 °F 59% 30.12 in 10.0 mi North 10.4 mph - N/A   Clear
6:55 PM 55.4 °F - 42.8 °F 63% 30.13 in 10.0 mi North 6.9 mph - N/A   Clear
7:15 PM 55.4 °F - 42.8 °F 63% 30.14 in 10.0 mi North 6.9 mph - N/A   Clear
7:35 PM 55.4 °F - 42.8 °F 63% 30.14 in 10.0 mi NNW 5.8 mph - N/A   Clear
7:55 PM 53.6 °F - 42.8 °F 67% 30.15 in 10.0 mi NNW 6.9 mph - N/A   Clear
8:15 PM 53.6 °F - 42.8 °F 67% 30.16 in 10.0 mi NNW 6.9 mph - N/A   Clear
8:35 PM 53.6 °F - 42.8 °F 67% 30.16 in 10.0 mi NNW 8.1 mph - N/A   Clear
8:55 PM 53.6 °F - 42.8 °F 67% 30.17 in 10.0 mi NNW 8.1 mph - N/A   Clear
9:15 PM 53.6 °F - 41.0 °F 62% 30.17 in 10.0 mi NNW 8.1 mph - N/A   Clear
9:35 PM 53.6 °F - 41.0 °F 62% 30.18 in 10.0 mi NNW 8.1 mph - N/A   Clear
9:55 PM 51.8 °F - 41.0 °F 67% 30.17 in 10.0 mi NNW 9.2 mph - N/A   Clear
10:15 PM 51.8 °F - 41.0 °F 67% 30.17 in 10.0 mi NNW 9.2 mph - N/A   Clear
10:35 PM 51.8 °F - 41.0 °F 67% 30.17 in 10.0 mi NNW 9.2 mph - N/A   Clear
10:55 PM 51.8 °F - 39.2 °F 62% 30.17 in 10.0 mi NNW 9.2 mph - N/A   Clear
11:15 PM 51.8 °F - 39.2 °F 62% 30.16 in 10.0 mi NNW 10.4 mph - N/A   Clear
11:35 PM 51.8 °F - 39.2 °F 62% 30.17 in 10.0 mi NNW 8.1 mph - N/A   Clear
11:55 PM 50.0 °F - 41.0 °F 71% 30.16 in 10.0 mi NNW 8.1 mph - N/A   Clear